• In Belarus
  • List of Countries
  • For 7 days
  • Water Temperature
  • Satellite Maps
  • Weather Map
  • Weather Widgets
  • user-avatar
    Login

    Hourly Weather Kipungo

    Today, 19 October, Friday

    Time Temperature Precipitation Wind Pressure Humidity
    00:00 +21°C° 0 mm 2 mps 652 mmHg 60%
    01:00 +19°C° 0 mm 2 mps 652 mmHg 75%
    02:00 +19°C° 0 mm 2 mps 652 mmHg 80%
    03:00 +19°C° 0 mm 1 mps 652 mmHg 84%
    04:00 +19°C° 0 mm 1 mps 652 mmHg 88%
    05:00 +20°C° 0 mm 1 mps 652 mmHg 82%
    06:00 +21°C° 0 mm 1 mps 653 mmHg 75%
    07:00 +22°C° 0 mm 1 mps 654 mmHg 68%
    08:00 +27°C° 0 mm 1 mps 655 mmHg 51%
    09:00 +31°C° 0 mm 1 mps 656 mmHg 34%
    10:00 +36°C° 0 mm 1 mps 657 mmHg 17%
    11:00 +37°C° 0 mm 1 mps 656 mmHg 14%
    12:00 +39°C° 0 mm 1 mps 655 mmHg 12%
    13:00 +40°C° 0 mm 2 mps 655 mmHg 9%
    14:00 +40°C° 0 mm 2 mps 654 mmHg 10%
    15:00 +39°C° 0 mm 2 mps 654 mmHg 11%
    16:00 +39°C° 0 mm 2 mps 653 mmHg 11%
    17:00 +36°C° 0 mm 2 mps 653 mmHg 15%
    18:00 +32°C° 0 mm 2 mps 653 mmHg 18%
    19:00 +30°C° 0 mm 2 mps 652 mmHg 22%
    20:00 +29°C° 0 mm 2 mps 653 mmHg 31%
    21:00 +27°C° 0 mm 2 mps 653 mmHg 39%
    22:00 +26°C° 0 mm 2 mps 653 mmHg 48%
    23:00 +25°C° 0 mm 2 mps 653 mmHg 54%

    Tomorrow, 20 October, Saturday

    Time Temperature Precipitation Wind Pressure Humidity
    00:00 +24°C° 0 mm 2 mps 653 mmHg 59%
    01:00 +23°C° 0 mm 2 mps 653 mmHg 64%
    02:00 +23°C° 0 mm 1 mps 652 mmHg 65%
    03:00 +22°C° 0 mm 1 mps 652 mmHg 65%
    04:00 +22°C° 0 mm 1 mps 652 mmHg 66%
    05:00 +23°C° 0 mm 1 mps 653 mmHg 60%
    06:00 +25°C° 0 mm 1 mps 653 mmHg 54%
    07:00 +26°C° 0 mm 1 mps 654 mmHg 48%
    08:00 +30°C° 0 mm 1 mps 655 mmHg 37%
    09:00 +33°C° 0 mm 1 mps 656 mmHg 26%
    10:00 +37°C° 0 mm 1 mps 656 mmHg 16%
    11:00 +39°C° 0 mm 2 mps 656 mmHg 15%
    12:00 +40°C° 0 mm 2 mps 655 mmHg 14%
    13:00 +41°C° 0 mm 2 mps 655 mmHg 13%
    14:00 +40°C° 0 mm 2 mps 654 mmHg 14%
    15:00 +39°C° 0 mm 2 mps 654 mmHg 16%
    16:00 +37°C° 0 mm 2 mps 653 mmHg 17%
    17:00 +35°C° 0 mm 2 mps 653 mmHg 22%
    18:00 +33°C° 0 mm 3 mps 653 mmHg 27%
    19:00 +30°C° 0 mm 3 mps 654 mmHg 32%
    20:00 +29°C° 0 mm 2 mps 654 mmHg 38%
    21:00 +27°C° 0 mm 2 mps 654 mmHg 44%
    22:00 +26°C° 0 mm 2 mps 654 mmHg 50%
    23:00 +25°C° 0 mm 2 mps 654 mmHg 53%

    Day after tomorrow, 21 October, Sunday

    Time Temperature Precipitation Wind Pressure Humidity
    00:00 +24°C° 0 mm 1 mps 653 mmHg 56%
    01:00 +24°C° 0 mm 1 mps 653 mmHg 59%
    02:00 +23°C° 0.2 mm 1 mps 653 mmHg 62%
    03:00 +23°C° 0.2 mm 1 mps 652 mmHg 64%
    04:00 +22°C° 0.2 mm 1 mps 652 mmHg 67%
    05:00 +23°C° 0 mm 1 mps 653 mmHg 64%
    06:00 +24°C° 0 mm 1 mps 653 mmHg 62%
    07:00 +25°C° 0 mm 1 mps 654 mmHg 59%
    08:00 +28°C° 0 mm 1 mps 655 mmHg 47%
    09:00 +31°C° 0 mm 1 mps 655 mmHg 36%
    10:00 +34°C° 0 mm 1 mps 656 mmHg 24%
    11:00 +35°C° 0 mm 1 mps 655 mmHg 22%
    12:00 +36°C° 0 mm 1 mps 655 mmHg 21%
    13:00 +37°C° 0 mm 1 mps 655 mmHg 19%
    14:00 +36°C° 0.2 mm 1 mps 654 mmHg 22%
    15:00 +36°C° 0.2 mm 2 mps 653 mmHg 25%
    16:00 +35°C° 0.2 mm 2 mps 652 mmHg 28%
    17:00 +31°C° 0.3 mm 2 mps 653 mmHg 34%
    18:00 +29°C° 0.3 mm 3 mps 653 mmHg 41%
    19:00 +27°C° 0.3 mm 3 mps 653 mmHg 48%
    20:00 +26°C° 1.5 mm 3 mps 654 mmHg 55%
    21:00 +25°C° 1.5 mm 3 mps 654 mmHg 62%
    22:00 +24°C° 1.5 mm 3 mps 654 mmHg 69%
    23:00 +24°C° 0.5 mm 3 mps 654 mmHg 70%

    22 October, Monday

    Time Temperature Precipitation Wind Pressure Humidity
    00:00 +24°C° 0.5 mm 2 mps 654 mmHg 72%
    01:00 +23°C° 0.5 mm 2 mps 653 mmHg 73%
    02:00 +23°C° 0.3 mm 1 mps 653 mmHg 73%
    03:00 +23°C° 0.3 mm 1 mps 653 mmHg 73%
    04:00 +23°C° 0.3 mm 1 mps 653 mmHg 72%
    05:00 +23°C° 0 mm 1 mps 653 mmHg 70%
    06:00 +22°C° 0 mm 0 mps 653 mmHg 67%
    07:00 +22°C° 0 mm 0 mps 654 mmHg 64%
    08:00 +26°C° 0 mm 1 mps 654 mmHg 57%
    09:00 +27°C° 0 mm 1 mps 654 mmHg 50%
    10:00 +29°C° 0 mm 1 mps 655 mmHg 43%
    11:00 +30°C° 0 mm 2 mps 654 mmHg 39%
    12:00 +31°C° 0 mm 2 mps 654 mmHg 34%
    13:00 +34°C° 0 mm 2 mps 654 mmHg 30%
    14:00 +32°C° 0 mm 2 mps 653 mmHg 31%
    15:00 +33°C° 0 mm 3 mps 653 mmHg 32%
    16:00 +33°C° 0 mm 3 mps 653 mmHg 33%
    17:00 +30°C° 0.7 mm 3 mps 653 mmHg 40%
    18:00 +28°C° 0.7 mm 3 mps 653 mmHg 47%
    19:00 +26°C° 0.7 mm 3 mps 653 mmHg 55%
    20:00 +25°C° 1.6 mm 3 mps 654 mmHg 60%
    21:00 +24°C° 1.6 mm 3 mps 654 mmHg 65%
    22:00 +23°C° 1.6 mm 2 mps 654 mmHg 70%
    23:00 +23°C° 0.1 mm 2 mps 654 mmHg 71%

    23 October, Tuesday

    Time Temperature Precipitation Wind Pressure Humidity
    00:00 +23°C° 0.1 mm 1 mps 653 mmHg 72%
    01:00 +23°C° 0.1 mm 1 mps 653 mmHg 73%
    02:00 +23°C° 0 mm 1 mps 653 mmHg 73%
    03:00 +22°C° 0 mm 1 mps 653 mmHg 74%
    04:00 +22°C° 0 mm 1 mps 653 mmHg 75%
    05:00 +23°C° 0 mm 1 mps 654 mmHg 72%
    06:00 +23°C° 0 mm 1 mps 654 mmHg 69%
    07:00 +24°C° 0 mm 1 mps 655 mmHg 67%
    08:00 +26°C° 0.6 mm 1 mps 656 mmHg 58%
    09:00 +29°C° 0.6 mm 1 mps 656 mmHg 49%
    10:00 +32°C° 0.6 mm 1 mps 657 mmHg 41%
    11:00 +32°C° 0.1 mm 1 mps 656 mmHg 38%
    12:00 +32°C° 0.1 mm 1 mps 655 mmHg 36%
    13:00 +33°C° 0.1 mm 1 mps 655 mmHg 33%
    14:00 +32°C° 0 mm 1 mps 654 mmHg 34%
    15:00 +32°C° 0 mm 1 mps 654 mmHg 34%
    16:00 +31°C° 0 mm 1 mps 654 mmHg 34%
    17:00 +30°C° 0.1 mm 2 mps 654 mmHg 39%
    18:00 +29°C° 0.1 mm 2 mps 654 mmHg 43%
    19:00 +27°C° 0.1 mm 2 mps 655 mmHg 47%
    20:00 +26°C° 0.8 mm 2 mps 655 mmHg 53%
    21:00 +25°C° 0.8 mm 2 mps 655 mmHg 60%
    22:00 +24°C° 0.8 mm 2 mps 655 mmHg 66%
    23:00 +24°C° 0.6 mm 2 mps 655 mmHg 69%

    24 October, Wednesday

    Time Temperature Precipitation Wind Pressure Humidity
    00:00 +23°C° 0.6 mm 2 mps 654 mmHg 72%
    01:00 +23°C° 0.6 mm 2 mps 654 mmHg 75%
    02:00 +22°C° 1.6 mm 1 mps 654 mmHg 76%
    03:00 +22°C° 1.6 mm 1 mps 654 mmHg 77%
    04:00 +22°C° 1.6 mm 1 mps 654 mmHg 78%
    05:00 +22°C° 0.1 mm 1 mps 654 mmHg 75%
    06:00 +23°C° 0.1 mm 1 mps 655 mmHg 72%
    07:00 +23°C° 0.1 mm 1 mps 655 mmHg 69%
    08:00 +26°C° 0 mm 1 mps 656 mmHg 60%
    09:00 +28°C° 0 mm 1 mps 656 mmHg 51%
    10:00 +30°C° 0 mm 1 mps 657 mmHg 42%
    11:00 +31°C° 0 mm 1 mps 656 mmHg 40%
    12:00 +31°C° 0 mm 1 mps 655 mmHg 38%
    13:00 +31°C° 0 mm 1 mps 655 mmHg 36%
    14:00 +31°C° 0 mm 2 mps 654 mmHg 37%
    15:00 +31°C° 0 mm 2 mps 654 mmHg 38%
    16:00 +30°C° 0 mm 2 mps 654 mmHg 39%
    17:00 +29°C° 0.1 mm 1 mps 654 mmHg 43%
    18:00 +28°C° 0.1 mm 1 mps 654 mmHg 47%
    19:00 +27°C° 0.1 mm 1 mps 654 mmHg 51%
    20:00 +26°C° 0.4 mm 1 mps 654 mmHg 56%
    21:00 +25°C° 0.4 mm 1 mps 654 mmHg 61%
    22:00 +24°C° 0.4 mm 1 mps 654 mmHg 65%
    23:00 +23°C° 0.1 mm 1 mps 654 mmHg 68%
    Show more